Location: Remedello Sotto
(45.2500°N, 10.3667°E)
Time: 21:36:39
(UTC+00:00)

Cosmos 540 Rocket - Pass Details

Date: 03 February 2023
Orbit: 740 x 751 km, 74.1° (Epoch: 23 March)

Event Time Altitude Azimuth Distance (km) Brightness Sun altitude
Rises 16:50:59 0° 347° (NNW) 3,207 6.7 -4.6°
Reaches altitude 10° 16:53:44 10° 360° (N) 2,277 5.8 -5.0°
Maximum altitude 16:58:02 26° 57° (ENE) 1,447 4.4 -5.8°
Drops below altitude 10° 17:02:17 10° 113° (ESE) 2,259 5.5 -6.5°
Sets 17:05:00 0° 126° (SE) 3,176 6.3 -6.9°
